| time (UTC) | temp F | wind direction | speed MPH | gust MPH | rain 1hr in | rain 24hr in | rain mn in | humidity % | barometer mb |
| 20260507234600 | 52 | 115 | 0.0 | 4.0 | 0.00 | 0.00 | 0.00 | 79 | 1016.1 |
| 20260507233639 | 52 | 139 | 1.0 | 2.0 | 0.00 | 0.00 | 0.00 | 78 | 1016.3 |
| 20260507232739 | 52 | 148 | 1.0 | 5.0 | 0.00 | 0.00 | 0.00 | 78 | 1016.4 |
| 20260507231900 | 52 | 142 | 1.0 | 4.0 | 0.00 | 0.00 | 0.00 | 77 | 1016.5 |
| 20260507230939 | 53 | 143 | 0.0 | 2.0 | 0.00 | 0.00 | 0.00 | 77 | 1016.5 |
| 20260507230040 | 53 | 158 | 1.0 | 5.0 | 0.00 | 0.00 | 0.00 | 77 | 1016.5 |
| 20260507225500 | 53 | 156 | 1.0 | 5.0 | 0.00 | 0.00 | 0.00 | 77 | 1016.5 |
| 20260507224539 | 53 | 155 | 0.0 | 5.0 | 0.00 | 0.00 | 0.00 | 76 | 1016.7 |
| 20260507223639 | 53 | 150 | 1.0 | 5.0 | 0.00 | 0.00 | 0.00 | 76 | 1016.7 |
| 20260507222739 | 53 | 157 | 3.0 | 8.0 | 0.00 | 0.00 | 0.00 | 76 | 1016.6 |
| 20260507221839 | 53 | 160 | 2.0 | 6.0 | 0.00 | 0.00 | 0.00 | 76 | 1016.6 |
| 20260507220939 | 53 | 149 | 2.0 | 6.0 | 0.00 | 0.00 | 0.00 | 76 | 1016.6 |
| 20260507220100 | 53 | 153 | 2.0 | 6.0 | 0.00 | 0.00 | 0.00 | 77 | 1016.6 |
| 20260507215439 | 53 | 141 | 1.0 | 6.0 | 0.00 | 0.00 | 0.00 | 77 | 1016.6 |
| 20260507214539 | 53 | 132 | 0.0 | 5.0 | 0.00 | 0.00 | 0.00 | 77 | 1016.6 |
| 20260507213639 | 53 | 132 | 0.0 | 5.0 | 0.00 | 0.00 | 0.00 | 77 | 1016.6 |
| 20260507212739 | 54 | 138 | 1.0 | 5.0 | 0.00 | 0.00 | 0.00 | 77 | 1016.6 |
| 20260507211900 | 54 | 132 | 1.0 | 4.0 | 0.00 | 0.00 | 0.00 | 77 | 1016.6 |
| 20260507210939 | 54 | 136 | 1.0 | 4.0 | 0.00 | 0.00 | 0.00 | 77 | 1016.5 |
| 20260507210039 | 54 | 136 | 0.0 | 2.0 | 0.00 | 0.00 | 0.00 | 76 | 1016.4 |
| 20260507205439 | 54 | 134 | 0.0 | 2.0 | 0.00 | 0.00 | 0.00 | 76 | 1016.4 |
| 20260507204539 | 54 | 128 | 1.0 | 5.0 | 0.00 | 0.00 | 0.00 | 76 | 1016.4 |
| 20260507203639 | 54 | 118 | 1.0 | 5.0 | 0.00 | 0.00 | 0.00 | 76 | 1016.3 |
| 20260507202739 | 54 | 125 | 1.0 | 6.0 | 0.00 | 0.00 | 0.00 | 74 | 1016.3 |
| 20260507201839 | 54 | 146 | 2.0 | 10.0 | 0.00 | 0.00 | 0.00 | 72 | 1016.2 |
| 20260507201000 | 54 | 156 | 3.0 | 11.0 | 0.00 | 0.00 | 0.00 | 71 | 1016.1 |
| 20260507200039 | 54 | 159 | 3.0 | 8.0 | 0.00 | 0.00 | 0.00 | 70 | 1016.0 |
| 20260507195438 | 54 | 157 | 2.0 | 8.0 | 0.00 | 0.00 | 0.00 | 70 | 1015.8 |
| 20260507194539 | 54 | 153 | 2.0 | 8.0 | 0.00 | 0.00 | 0.00 | 72 | 1015.8 |
| 20260507193639 | 54 | 143 | 2.0 | 7.0 | 0.00 | 0.00 | 0.00 | 73 | 1015.7 |
| 20260507192739 | 54 | 145 | 2.0 | 7.0 | 0.00 | 0.00 | 0.00 | 73 | 1015.6 |
| 20260507191839 | 55 | 148 | 2.0 | 10.0 | 0.00 | 0.00 | 0.00 | 73 | 1015.7 |
| 20260507190939 | 55 | 137 | 2.0 | 10.0 | 0.00 | 0.00 | 0.00 | 73 | 1015.7 |
| 20260507190039 | 55 | 140 | 2.0 | 8.0 | 0.00 | 0.00 | 0.00 | 72 | 1015.6 |
| 20260507185500 | 55 | 144 | 2.0 | 8.0 | 0.00 | 0.00 | 0.00 | 72 | 1015.7 |
| 20260507184538 | 55 | 147 | 3.0 | 8.0 | 0.00 | 0.00 | 0.00 | 72 | 1015.6 |
| 20260507183638 | 55 | 132 | 3.0 | 8.0 | 0.00 | 0.00 | 0.00 | 71 | 1015.6 |
| 20260507182738 | 55 | 141 | 3.0 | 10.0 | 0.00 | 0.00 | 0.00 | 71 | 1015.6 |
| 20260507181900 | 55 | 142 | 3.0 | 10.0 | 0.00 | 0.00 | 0.00 | 70 | 1015.7 |
| 20260507180939 | 56 | 136 | 3.0 | 10.0 | 0.00 | 0.00 | 0.00 | 70 | 1015.6 |
| 20260507180039 | 56 | 157 | 3.0 | 12.0 | 0.00 | 0.00 | 0.00 | 69 | 1015.5 |
| 20260507175439 | 56 | 157 | 3.0 | 11.0 | 0.00 | 0.00 | 0.00 | 69 | 1015.6 |
| 20260507174539 | 56 | 133 | 3.0 | 8.0 | 0.00 | 0.00 | 0.00 | 68 | 1015.5 |
| 20260507173639 | 56 | 148 | 3.0 | 7.0 | 0.00 | 0.00 | 0.00 | 68 | 1015.4 |
| 20260507172738 | 56 | 155 | 3.0 | 10.0 | 0.00 | 0.00 | 0.00 | 67 | 1015.3 |
| 20260507171838 | 56 | 144 | 4.0 | 10.0 | 0.00 | 0.00 | 0.00 | 66 | 1015.2 |
| 20260507170938 | 56 | 152 | 3.0 | 12.0 | 0.00 | 0.00 | 0.00 | 66 | 1015.2 |
| 20260507170038 | 56 | 148 | 3.0 | 10.0 | 0.00 | 0.00 | 0.00 | 66 | 1015.2 |
| 20260507165459 | 56 | 146 | 3.0 | 10.0 | 0.00 | 0.00 | 0.00 | 65 | 1015.2 |
| 20260507164538 | 56 | 150 | 3.0 | 11.0 | 0.00 | 0.00 | 0.00 | 65 | 1015.2 |
| 20260507163638 | 57 | 141 | 3.0 | 11.0 | 0.00 | 0.00 | 0.00 | 64 | 1015.2 |
| 20260507162738 | 57 | 153 | 4.0 | 12.0 | 0.00 | 0.00 | 0.00 | 64 | 1015.2 |
| 20260507161838 | 57 | 137 | 3.0 | 10.0 | 0.00 | 0.00 | 0.00 | 64 | 1015.3 |
| 20260507160938 | 57 | 150 | 3.0 | 10.0 | 0.00 | 0.00 | 0.00 | 63 | 1015.3 |
| 20260507160038 | 57 | 140 | 3.0 | 10.0 | 0.00 | 0.00 | 0.00 | 63 | 1015.4 |
| 20260507155438 | 57 | 141 | 3.0 | 10.0 | 0.00 | 0.00 | 0.00 | 63 | 1015.3 |
| 20260507154538 | 57 | 144 | 3.0 | 11.0 | 0.00 | 0.00 | 0.00 | 62 | 1015.3 |
| 20260507153638 | 57 | 150 | 4.0 | 13.0 | 0.00 | 0.00 | 0.00 | 61 | 1015.2 |
| 20260507152759 | 58 | 136 | 3.0 | 11.0 | 0.00 | 0.00 | 0.00 | 61 | 1015.3 |
| 20260507151859 | 58 | 135 | 4.0 | 12.0 | 0.00 | 0.00 | 0.00 | 60 | 1015.3 |
| 20260507150938 | 58 | 159 | 4.0 | 13.0 | 0.00 | 0.00 | 0.00 | 59 | 1015.4 |
| 20260507150038 | 58 | 160 | 5.0 | 12.0 | 0.00 | 0.00 | 0.00 | 59 | 1015.4 |
| 20260507145438 | 58 | 144 | 4.0 | 13.0 | 0.00 | 0.00 | 0.00 | 59 | 1015.3 |
| 20260507144538 | 58 | 153 | 4.0 | 11.0 | 0.00 | 0.00 | 0.00 | 61 | 1015.4 |
| 20260507143638 | 58 | 156 | 4.0 | 13.0 | 0.00 | 0.00 | 0.00 | 61 | 1015.4 |
| 20260507142738 | 58 | 150 | 3.0 | 12.0 | 0.00 | 0.00 | 0.00 | 61 | 1015.4 |
| 20260507141838 | 58 | 153 | 3.0 | 10.0 | 0.00 | 0.00 | 0.00 | 61 | 1015.4 |
| 20260507140938 | 57 | 158 | 2.0 | 7.0 | 0.00 | 0.00 | 0.00 | 63 | 1015.4 |
| 20260507140038 | 57 | 135 | 2.0 | 10.0 | 0.00 | 0.00 | 0.00 | 61 | 1015.6 |
| 20260507135438 | 57 | 147 | 3.0 | 11.0 | 0.00 | 0.00 | 0.00 | 62 | 1015.6 |
| 20260507134538 | 57 | 157 | 2.0 | 11.0 | 0.00 | 0.00 | 0.00 | 62 | 1015.7 |
| 20260507133638 | 56 | 165 | 2.0 | 8.0 | 0.00 | 0.00 | 0.00 | 62 | 1015.6 |
| 20260507132738 | 56 | 143 | 3.0 | 10.0 | 0.00 | 0.00 | 0.00 | 62 | 1015.6 |
| 20260507131838 | 57 | 152 | 2.0 | 7.0 | 0.00 | 0.00 | 0.00 | 62 | 1015.8 |
| 20260507130959 | 57 | 140 | 1.0 | 7.0 | 0.00 | 0.00 | 0.00 | 60 | 1015.7 |
| 20260507130038 | 57 | 156 | 2.0 | 8.0 | 0.00 | 0.00 | 0.00 | 61 | 1015.7 |
| 20260507125438 | 57 | 165 | 3.0 | 8.0 | 0.00 | 0.00 | 0.00 | 61 | 1015.8 |
| 20260507124559 | 57 | 159 | 3.0 | 8.0 | 0.00 | 0.00 | 0.00 | 60 | 1015.8 |
| 20260507123659 | 57 | 165 | 1.0 | 8.0 | 0.00 | 0.00 | 0.00 | 59 | 1015.8 |
| 20260507122739 | 57 | 156 | 3.0 | 8.0 | 0.00 | 0.00 | 0.00 | 60 | 1015.9 |
| 20260507121859 | 57 | 148 | 2.0 | 7.0 | 0.00 | 0.00 | 0.00 | 60 | 1015.8 |
| 20260507120938 | 57 | 139 | 2.0 | 7.0 | 0.00 | 0.00 | 0.00 | 60 | 1015.8 |
| 20260507120038 | 56 | 157 | 2.0 | 6.0 | 0.00 | 0.00 | 0.00 | 59 | 1015.9 |
| 20260507115459 | 57 | 156 | 2.0 | 6.0 | 0.00 | 0.00 | 0.00 | 61 | 1015.9 |
| 20260507114538 | 56 | 150 | 3.0 | 8.0 | 0.00 | 0.00 | 0.00 | 60 | 1015.9 |
| 20260507113638 | 56 | 148 | 2.0 | 7.0 | 0.00 | 0.00 | 0.00 | 61 | 1016.0 |
| 20260507112738 | 56 | 127 | 2.0 | 8.0 | 0.00 | 0.00 | 0.00 | 63 | 1016.0 |
| 20260507111838 | 56 | 163 | 3.0 | 8.0 | 0.00 | 0.00 | 0.00 | 65 | 1016.0 |
| 20260507110938 | 56 | 160 | 2.0 | 10.0 | 0.00 | 0.00 | 0.00 | 64 | 1016.1 |
| 20260507110038 | 56 | 159 | 2.0 | 10.0 | 0.00 | 0.00 | 0.00 | 63 | 1016.1 |
| 20260507105438 | 55 | 158 | 1.0 | 6.0 | 0.00 | 0.00 | 0.00 | 64 | 1016.3 |
| 20260507104538 | 55 | 161 | 2.0 | 8.0 | 0.00 | 0.00 | 0.00 | 64 | 1016.2 |
| 20260507103638 | 55 | 175 | 2.0 | 10.0 | 0.00 | 0.00 | 0.00 | 64 | 1016.2 |
| 20260507102738 | 55 | 167 | 2.0 | 10.0 | 0.00 | 0.00 | 0.00 | 64 | 1016.4 |
| 20260507101859 | 55 | 158 | 1.0 | 6.0 | 0.00 | 0.00 | 0.00 | 62 | 1016.3 |
| 20260507100938 | 55 | 165 | 1.0 | 7.0 | 0.00 | 0.00 | 0.00 | 65 | 1016.3 |
| 20260507100038 | 55 | 151 | 1.0 | 7.0 | 0.00 | 0.00 | 0.00 | 66 | 1016.3 |
| 20260507095438 | 55 | 151 | 1.0 | 7.0 | 0.00 | 0.00 | 0.00 | 65 | 1016.3 |
| 20260507094538 | 55 | 157 | 2.0 | 7.0 | 0.00 | 0.00 | 0.00 | 67 | 1016.3 |
| 20260507093638 | 54 | 146 | 2.0 | 6.0 | 0.00 | 0.00 | 0.00 | 69 | 1016.3 |
| 20260507092759 | 54 | 151 | 1.0 | 6.0 | 0.00 | 0.00 | 0.00 | 68 | 1016.3 |
| 20260507091859 | 54 | 150 | 1.0 | 6.0 | 0.00 | 0.00 | 0.00 | 68 | 1016.3 |
| 20260507090938 | 55 | 157 | 2.0 | 7.0 | 0.00 | 0.00 | 0.00 | 67 | 1016.3 |
| 20260507090038 | 54 | 160 | 2.0 | 8.0 | 0.00 | 0.00 | 0.00 | 68 | 1016.3 |
| 20260507085438 | 54 | 158 | 2.0 | 8.0 | 0.00 | 0.00 | 0.00 | 69 | 1016.4 |
| 20260507084538 | 54 | 142 | 2.0 | 7.0 | 0.00 | 0.00 | 0.00 | 69 | 1016.4 |
| 20260507083638 | 56 | 146 | 2.0 | 7.0 | 0.00 | 0.00 | 0.00 | 68 | 1016.2 |
| 20260507082759 | 55 | 140 | 2.0 | 7.0 | 0.00 | 0.00 | 0.00 | 70 | 1016.2 |
| 20260507081838 | 55 | 151 | 2.0 | 7.0 | 0.00 | 0.00 | 0.00 | 70 | 1016.2 |
| 20260507080938 | 54 | 158 | 2.0 | 7.0 | 0.00 | 0.00 | 0.00 | 71 | 1016.2 |
| 20260507080038 | 54 | 155 | 2.0 | 7.0 | 0.00 | 0.00 | 0.00 | 73 | 1016.2 |
| 20260507075438 | 54 | 147 | 1.0 | 7.0 | 0.00 | 0.00 | 0.00 | 73 | 1016.2 |
| 20260507074538 | 53 | 121 | 1.0 | 7.0 | 0.00 | 0.00 | 0.00 | 74 | 1016.1 |
| 20260507073638 | 52 | 140 | 1.0 | 6.0 | 0.00 | 0.00 | 0.00 | 76 | 1016.2 |
| 20260507072738 | 51 | 144 | 2.0 | 7.0 | 0.00 | 0.00 | 0.00 | 76 | 1016.1 |
| 20260507071859 | 51 | 159 | 2.0 | 6.0 | 0.00 | 0.00 | 0.00 | 78 | 1016.0 |
| 20260507070938 | 50 | 130 | 1.0 | 6.0 | 0.00 | 0.00 | 0.00 | 78 | 1016.0 |
| 20260507070038 | 50 | 103 | 0.0 | 5.0 | 0.00 | 0.00 | 0.00 | 78 | 1016.0 |
| 20260507065438 | 50 | 106 | 0.0 | 5.0 | 0.00 | 0.00 | 0.00 | 78 | 1016.0 |
| 20260507064538 | 50 | 114 | 1.0 | 5.0 | 0.00 | 0.00 | 0.00 | 78 | 1016.0 |
| 20260507063659 | 50 | 119 | 0.0 | 2.0 | 0.00 | 0.00 | 0.00 | 78 | 1016.0 |
| 20260507062738 | 49 | 139 | 0.0 | 4.0 | 0.00 | 0.00 | 0.00 | 78 | 1015.9 |
| 20260507061838 | 49 | 134 | 1.0 | 4.0 | 0.00 | 0.00 | 0.00 | 79 | 1016.0 |
| 20260507060959 | 49 | 130 | 0.0 | 2.0 | 0.00 | 0.00 | 0.00 | 79 | 1016.0 |
| 20260507060038 | 49 | 128 | 0.0 | 2.0 | 0.00 | 0.00 | 0.00 | 79 | 1015.8 |
| 20260507055459 | 49 | 128 | 0.0 | 2.0 | 0.00 | 0.00 | 0.00 | 79 | 1015.7 |
| 20260507054538 | 49 | 128 | 0.0 | 5.0 | 0.00 | 0.00 | 0.00 | 79 | 1015.6 |
| 20260507053639 | 49 | 128 | 1.0 | 5.0 | 0.00 | 0.00 | 0.00 | 79 | 1015.5 |
| 20260507052759 | 48 | 112 | 0.0 | 2.0 | 0.00 | 0.00 | 0.00 | 79 | 1015.4 |
| 20260507051858 | 48 | 85 | 0.0 | 4.0 | 0.00 | 0.00 | 0.00 | 79 | 1015.4 |
| 20260507050938 | 48 | 0 | 0.0 | 0.0 | 0.00 | 0.00 | 0.00 | 79 | 1015.3 |
| 20260507050038 | 48 | 0 | 0.0 | 0.0 | 0.00 | 0.00 | 0.00 | 79 | 1015.3 |
| 20260507045437 | 48 | 0 | 0.0 | 0.0 | 0.00 | 0.00 | 0.00 | 79 | 1015.2 |
| 20260507044538 | 48 | 0 | 0.0 | 0.0 | 0.00 | 0.00 | 0.00 | 80 | 1015.2 |
| 20260507043637 | 48 | 0 | 0.0 | 0.0 | 0.00 | 0.00 | 0.00 | 80 | 1015.1 |
| 20260507042737 | 48 | 0 | 0.0 | 0.0 | 0.00 | 0.00 | 0.00 | 80 | 1015.2 |
| 20260507041837 | 48 | 0 | 0.0 | 2.0 | 0.00 | 0.00 | 0.00 | 80 | 1015.2 |
| 20260507040937 | 48 | 80 | 0.0 | 2.0 | 0.00 | 0.00 | 0.00 | 80 | 1015.2 |
| 20260507040038 | 48 | 79 | 0.0 | 4.0 | 0.00 | 0.00 | 0.00 | 80 | 1015.1 |
| 20260507035438 | 48 | 76 | 0.0 | 4.0 | 0.00 | 0.00 | 0.00 | 80 | 1015.1 |
| 20260507034538 | 49 | 76 | 0.0 | 2.0 | 0.00 | 0.00 | 0.00 | 80 | 1015.0 |
| 20260507033637 | 49 | 76 | 0.0 | 4.0 | 0.00 | 0.00 | 0.00 | 80 | 1015.1 |
| 20260507032759 | 49 | 76 | 0.0 | 4.0 | 0.00 | 0.00 | 0.00 | 80 | 1015.0 |
| 20260507031837 | 49 | 77 | 1.0 | 6.0 | 0.00 | 0.00 | 0.00 | 80 | 1015.1 |
| 20260507030938 | 48 | 96 | 1.0 | 6.0 | 0.00 | 0.00 | 0.00 | 81 | 1015.0 |
| 20260507030058 | 48 | 83 | 1.0 | 6.0 | 0.00 | 0.00 | 0.00 | 82 | 1015.0 |
| 20260507025437 | 48 | 72 | 0.0 | 4.0 | 0.00 | 0.00 | 0.00 | 83 | 1015.0 |
| 20260507024537 | 48 | 44 | 0.0 | 4.0 | 0.00 | 0.00 | 0.00 | 84 | 1015.0 |
| 20260507023659 | 48 | 56 | 1.0 | 4.0 | 0.00 | 0.00 | 0.00 | 84 | 1015.0 |
| 20260507022738 | 48 | 34 | 1.0 | 4.0 | 0.00 | 0.00 | 0.00 | 84 | 1015.0 |
| 20260507021837 | 48 | 22 | 0.0 | 4.0 | 0.00 | 0.00 | 0.00 | 84 | 1015.0 |
| 20260507020958 | 48 | 359 | 0.0 | 2.0 | 0.00 | 0.00 | 0.00 | 84 | 1014.9 |
| 20260507020037 | 48 | 355 | 1.0 | 4.0 | 0.00 | 0.00 | 0.00 | 84 | 1014.9 |
| 20260507015437 | 48 | 356 | 1.0 | 4.0 | 0.00 | 0.00 | 0.00 | 83 | 1014.9 |
| 20260507014537 | 48 | 15 | 1.0 | 4.0 | 0.00 | 0.00 | 0.00 | 83 | 1014.8 |
| 20260507013637 | 49 | 23 | 0.0 | 1.0 | 0.00 | 0.00 | 0.00 | 82 | 1014.8 |
| 20260507012737 | 49 | 23 | 0.0 | 2.0 | 0.00 | 0.00 | 0.00 | 82 | 1014.9 |
| 20260507011837 | 49 | 20 | 0.0 | 2.0 | 0.00 | 0.00 | 0.00 | 82 | 1014.9 |
| 20260507010937 | 49 | 14 | 0.0 | 2.0 | 0.00 | 0.00 | 0.00 | 82 | 1015.5 |
| 20260507010037 | 49 | 14 | 0.0 | 2.0 | 0.00 | 0.00 | 0.00 | 82 | 1014.9 |
| 20260507005437 | 49 | 13 | 0.0 | 2.0 | 0.00 | 0.00 | 0.00 | 82 | 1014.8 |
| 20260507004537 | 49 | 333 | 0.0 | 4.0 | 0.00 | 0.00 | 0.00 | 83 | 1014.9 |
| 20260507003658 | 49 | 333 | 1.0 | 4.0 | 0.00 | 0.00 | 0.00 | 83 | 1015.0 |
| 20260507002737 | 49 | 354 | 1.0 | 4.0 | 0.00 | 0.00 | 0.00 | 82 | 1015.0 |
| 20260507001858 | 49 | 47 | 1.0 | 4.0 | 0.00 | 0.00 | 0.00 | 82 | 1014.9 |
| 20260507000937 | 49 | 61 | 0.0 | 2.0 | 0.00 | 0.00 | 0.00 | 82 | 1014.9 |
| 20260507000037 | 49 | 61 | 0.0 | 2.0 | 0.00 | 0.00 | 0.00 | 81 | 1014.9 |
| 20260506235437 | 49 | 61 | 0.0 | 2.0 | 0.00 | 0.00 | 0.00 | 81 | 1014.9 |